Find Starlink 31903

NORAD ID: 59845 Int'l Des: 2024-097 Owner: SPXS Country: US Constellation: starlink operational
LEOCIRCULAR

实时位置

正在加载3D地球...

关于 Starlink 31903

正在加载描述...

即将过境

Passes for default location (London). Set your location on the main map for personalized predictions.

高度历史

Loading altitude history...

两行轨道根数

1 59845U 24097L 26124.56893856 .00000959 00000-0 44385-4 0 9999
2 59845 42.9997 311.7822 0000608 208.5196 151.5622 15.27569947110540
Epoch: May 4, 2026 • Age: 25 hours

当前状态

高度 495.6 km
速度 7.62 km/s
星下点 -41.60°S, 154.75°E
发射日期 May 23, 2024
运行时间 1.9 years
类型 internet

技术详情

分类 Payload
质量 730.00 kg
干质量 700.00 kg
总质量 730.00 kg
长度 0.30 m
直径 4.10 m
跨度 29.00 m
形状 Box + pan
制造商 SPXS
平台类型 Starlink V2M
阶段状态 In Orbit
所有者/国家 SPXS/US

Most Searched